FW5468 Weather Reports


time (UTC)temp
C
wind
direction
speed
KPH
gust
KPH
rain 1hr
cm
rain 24hr
cm
rain mn
cm
humidity
%
barometer
mb
20260504191627 26 227 11.3 27.4 0.00 0.00 0.00 43 1009.8
20260504190054 26 18 4.8 22.5 0.00 0.00 0.00 49 1010.0
20260504184541 26 191 4.8 29.0 0.00 0.00 0.00 47 1010.0
20260504183112 26 193 9.7 32.2 0.00 0.00 0.00 46 1010.1
20260504181521 26 179 8.0 29.0 0.00 0.00 0.00 47 1010.2
20260504180000 26 187 9.7 25.7 0.00 0.00 0.00 44 1010.3
20260504174545 26 287 8.0 24.1 0.00 0.00 0.00 49 1010.6
20260504173011 26 226 4.8 22.5 0.00 0.00 0.00 46 1010.9
20260504171559 25 275 3.2 24.1 0.00 0.00 0.00 51 1011.0
20260504150103 22 270 6.4 19.3 0.00 0.00 0.00 60 1012.2
20260504081528 16 222 3.2 11.3 0.00 0.00 0.00 64 1012.1
20260504080136 16 210 3.2 12.9 0.00 0.00 0.00 63 1012.2
20260504044623 15 189 0.0 6.4 0.00 0.00 0.00 62 1013.6
20260504043048 15 233 0.0 4.8 0.00 0.00 0.00 62 1013.6
20260504041635 15 175 0.0 6.4 0.00 0.00 0.00 62 1013.7
20260504040132 15 197 0.0 3.2 0.00 0.00 0.00 61 1013.8
20260504034537 16 179 0.0 0.0 0.00 0.00 0.00 59 1014.0
20260504033001 16 203 1.6 6.4 0.00 0.00 0.00 58 1014.0
20260504031559 16 183 0.0 4.8 0.00 0.00 0.00 58 1014.1
20260504030009 16 198 0.0 6.4 0.00 0.00 0.00 56 1014.1
20260504024555 17 193 1.6 4.8 0.00 0.00 0.00 56 1014.2
20260504023010 17 168 1.6 6.4 0.00 0.00 0.00 54 1014.1
20260504021554 17 201 1.6 9.7 0.00 0.00 0.00 53 1013.9
20260504020038 17 213 1.6 9.7 0.00 0.00 0.00 53 1013.7
20260504014604 17 183 1.6 6.4 0.00 0.00 0.00 53 1013.8
20260504013048 17 168 0.0 4.8 0.00 0.00 0.00 52 1013.8
20260504011505 18 199 0.0 3.2 0.00 0.00 0.00 51 1013.8
20260504010125 18 182 0.0 1.6 0.00 0.00 0.00 49 1013.9
20260504004546 19 187 0.0 4.8 0.00 0.00 0.00 47 1013.9
20260504003007 20 184 0.0 1.6 0.00 0.00 0.00 45 1014.0
20260504001556 20 210 1.6 6.4 0.00 0.00 0.00 42 1014.1
20260504000039 21 211 3.2 12.9 0.00 0.00 0.00 39 1014.1
20260503234629 21 174 4.8 14.5 0.00 0.00 0.00 39 1014.2
20260503233049 21 27 3.2 11.3 0.00 0.00 0.00 38 1014.3
20260503231616 22 312 4.8 12.9 0.00 0.00 0.00 38 1014.4
20260503230056 22 211 4.8 17.7 0.00 0.00 0.00 37 1014.5
20260503224541 22 259 4.8 12.9 0.00 0.00 0.00 38 1014.8
20260503223003 22 203 6.4 12.9 0.00 0.00 0.00 37 1014.5
20260503221559 23 221 3.2 17.7 0.00 0.00 0.00 38 1014.8
20260503220034 23 265 4.8 12.9 0.00 0.00 0.00 40 1015.2
20260503214603 22 282 4.8 14.5 0.00 0.00 0.00 38 1015.3
20260503213020 22 186 6.4 16.1 0.00 0.00 0.00 39 1015.7
20260503211608 22 192 1.6 9.7 0.00 0.00 0.00 39 1015.9
20260503210055 22 339 3.2 16.1 0.00 0.00 0.00 42 1016.3
20260503204515 22 172 8.0 19.3 0.00 0.00 0.00 40 1016.8
20260503203103 21 229 4.8 16.1 0.00 0.00 0.00 43 1017.0
20260503201548 22 220 3.2 16.1 0.00 0.00 0.00 41 1017.3
20260503200113 22 246 6.4 16.1 0.00 0.00 0.00 37 1017.7
20260503194548 21 287 4.8 16.1 0.00 0.00 0.00 39 1018.1
20260503193054 22 232 9.7 24.1 0.00 0.00 0.00 40 1018.4